User: anonymous   Login
Location: Unspecified
(0.0000°N, 0.0000°E)
Time: 06:54:57
(UTC+00:00)
Language:

AO-27 - Orbit

View from above orbital plane
View from above orbital plane
View from above satellite
View from above satellite

Ground track
Ground track

The orbit data is extracted from the following two-line orbital elements,

1 22825U 93061C   18349.92691305  .00000011  00000-0  22070-4 0  9995
2 22825  98.8850 329.5371 0008488 170.1935 189.9414 14.30046902315546
Epoch (UTC): 15 December 2018 22:14:45
Eccentricity: 0.0008488
inclination: 98.8850°
perigee height: 785 km
apogee height: 797 km
right ascension of ascending node: 329.5371°
argument of perigee: 170.1935°
revolutions per day: 14.30046902
mean anomaly at epoch: 189.9414°
orbit number at epoch: 31554

The dashed part of the orbit path shows where the satellite is in the earth's shadow,  

DLR